TimeEDT,TemperatureF,Dew PointF,Humidity,Sea Level PressureIn,VisibilityMPH,Wind Direction,Wind SpeedMPH,Gust SpeedMPH,PrecipitationIn,Events,Conditions,WindDirDegrees,DateUTC
12:15 AM,70.0,65.8,87,29.79,10.0,Calm,Calm,-,N/A,,Clear,0,2013-05-16 04:15:00
12:35 AM,65.7,64.8,97,29.79,10.0,Calm,Calm,-,N/A,,Clear,0,2013-05-16 04:35:00
12:55 AM,68.4,64.8,88,29.79,10.0,Calm,Calm,-,N/A,,Clear,0,2013-05-16 04:55:00
1:15 AM,70.0,64.0,81,29.79,10.0,South,4.6,-,N/A,,Clear,170,2013-05-16 05:15:00
1:35 AM,68.4,63.3,84,29.78,10.0,South,3.5,-,N/A,,Clear,180,2013-05-16 05:35:00
1:55 AM,72.7,61.2,67,29.78,10.0,SSW,5.8,-,N/A,,Clear,200,2013-05-16 05:55:00
2:15 AM,72.7,60.6,66,29.78,10.0,SW,4.6,-,N/A,,Clear,220,2013-05-16 06:15:00
2:35 AM,71.8,60.4,67,29.77,10.0,SSW,3.5,-,N/A,,Clear,210,2013-05-16 06:35:00
2:55 AM,70.7,60.3,69,29.78,10.0,South,4.6,-,N/A,,Clear,190,2013-05-16 06:55:00
3:15 AM,70.3,60.3,70,29.79,10.0,SSW,3.5,-,N/A,,Clear,210,2013-05-16 07:15:00
3:35 AM,66.9,60.1,79,29.78,10.0,Calm,Calm,-,N/A,,Clear,0,2013-05-16 07:35:00
3:55 AM,66.6,59.9,79,29.78,10.0,SSE,3.5,-,N/A,,Clear,150,2013-05-16 07:55:00
4:15 AM,63.5,60.3,89,29.78,10.0,Calm,Calm,-,N/A,,Clear,0,2013-05-16 08:15:00
4:35 AM,63.9,59.9,87,29.78,10.0,Calm,Calm,-,N/A,,Clear,0,2013-05-16 08:35:00
4:55 AM,63.7,59.7,87,29.79,10.0,Calm,Calm,-,N/A,,Clear,0,2013-05-16 08:55:00
5:15 AM,61.3,59.4,93,29.79,10.0,Calm,Calm,-,N/A,,Clear,0,2013-05-16 09:15:00
5:35 AM,61.2,59.5,94,29.79,10.0,Calm,Calm,-,N/A,,Clear,0,2013-05-16 09:35:00
5:55 AM,61.5,59.0,91,29.79,10.0,Calm,Calm,-,N/A,,Clear,0,2013-05-16 09:55:00
6:15 AM,61.3,59.4,93,29.80,10.0,Calm,Calm,-,N/A,,Clear,0,2013-05-16 10:15:00
6:35 AM,59.9,59.0,97,29.81,10.0,Calm,Calm,-,N/A,,Clear,0,2013-05-16 10:35:00
6:55 AM,61.5,60.3,96,29.82,10.0,Calm,Calm,-,N/A,,Clear,0,2013-05-16 10:55:00
7:15 AM,63.3,62.1,96,29.83,10.0,Calm,Calm,-,N/A,,Clear,0,2013-05-16 11:15:00
7:35 AM,69.4,63.5,81,29.84,10.0,Calm,Calm,-,N/A,,Clear,0,2013-05-16 11:35:00
7:55 AM,71.4,64.2,78,29.85,10.0,Calm,Calm,-,N/A,,Clear,0,2013-05-16 11:55:00
8:15 AM,71.6,65.1,80,29.85,10.0,Calm,Calm,-,N/A,,Clear,0,2013-05-16 12:15:00
8:35 AM,73.4,64.0,72,29.85,10.0,Calm,Calm,-,N/A,,Clear,0,2013-05-16 12:35:00
8:55 AM,74.3,66.2,76,29.85,10.0,Calm,Calm,-,N/A,,Clear,0,2013-05-16 12:55:00
9:15 AM,74.5,66.0,75,29.85,10.0,Calm,Calm,-,N/A,,Clear,0,2013-05-16 13:15:00
9:35 AM,76.8,67.3,72,29.84,10.0,Calm,Calm,-,N/A,,Clear,0,2013-05-16 13:35:00
9:55 AM,80.2,66.2,62,29.85,10.0,Calm,Calm,-,N/A,,Clear,0,2013-05-16 13:55:00
10:15 AM,82.6,66.7,59,29.85,10.0,Calm,Calm,-,N/A,,Clear,0,2013-05-16 14:15:00
10:35 AM,84.9,64.8,51,29.85,10.0,Calm,Calm,-,N/A,,Clear,0,2013-05-16 14:35:00
10:55 AM,85.6,65.7,51,29.86,10.0,NW,8.1,-,N/A,,Clear,310,2013-05-16 14:55:00
11:15 AM,86.2,65.3,50,29.87,10.0,WNW,6.9,-,N/A,,Clear,290,2013-05-16 15:15:00
11:35 AM,86.4,64.9,49,29.87,10.0,Calm,Calm,-,N/A,,Clear,0,2013-05-16 15:35:00
11:55 AM,84.4,65.1,52,29.87,10.0,West,6.9,-,N/A,,Scattered Clouds,280,2013-05-16 15:55:00
12:15 PM,82.9,64.8,54,29.87,10.0,WSW,5.8,-,N/A,,Overcast,250,2013-05-16 16:15:00
12:35 PM,86.0,66.4,52,29.86,10.0,West,10.4,-,N/A,,Mostly Cloudy,280,2013-05-16 16:35:00
12:55 PM,84.2,65.7,54,29.85,10.0,Calm,Calm,-,N/A,,Mostly Cloudy,0,2013-05-16 16:55:00
1:15 PM,83.8,66.7,56,29.83,10.0,SW,3.5,-,N/A,,Scattered Clouds,230,2013-05-16 17:15:00
1:35 PM,85.3,67.3,55,29.84,10.0,SW,4.6,-,N/A,,Scattered Clouds,220,2013-05-16 17:35:00
1:55 PM,87.8,66.9,50,29.84,10.0,WSW,8.1,-,N/A,,Clear,250,2013-05-16 17:55:00
2:15 PM,86.9,66.7,51,29.85,10.0,WNW,8.1,-,N/A,,Clear,290,2013-05-16 18:15:00
2:35 PM,88.5,65.3,46,29.85,10.0,West,10.4,-,N/A,,Clear,280,2013-05-16 18:35:00
2:55 PM,88.0,66.9,49,29.85,10.0,WNW,17.3,24.2,N/A,,Scattered Clouds,290,2013-05-16 18:55:00
3:15 PM,85.3,66.2,53,29.85,10.0,WNW,18.4,23.0,N/A,,Scattered Clouds,300,2013-05-16 19:15:00
3:35 PM,84.2,66.9,56,29.85,10.0,WNW,11.5,18.4,N/A,,Clear,290,2013-05-16 19:35:00
3:55 PM,84.4,68.9,60,29.84,10.0,West,5.8,-,N/A,,Scattered Clouds,280,2013-05-16 19:55:00
4:15 PM,81.3,66.6,61,29.84,10.0,West,8.1,-,N/A,,Clear,270,2013-05-16 20:15:00
4:35 PM,82.2,67.3,60,29.85,10.0,WNW,9.2,-,N/A,,Clear,290,2013-05-16 20:35:00
4:55 PM,81.9,67.5,62,29.85,10.0,West,3.5,-,N/A,,Clear,270,2013-05-16 20:55:00
5:15 PM,81.5,65.7,58,29.85,10.0,NW,6.9,-,N/A,,Scattered Clouds,310,2013-05-16 21:15:00
5:35 PM,81.7,66.4,60,29.86,10.0,NW,4.6,-,N/A,,Scattered Clouds,320,2013-05-16 21:35:00
5:55 PM,80.1,67.5,65,29.86,10.0,WNW,6.9,-,N/A,,Mostly Cloudy,300,2013-05-16 21:55:00
6:15 PM,81.5,68.2,64,29.86,10.0,WNW,6.9,-,N/A,,Scattered Clouds,300,2013-05-16 22:15:00
6:35 PM,79.3,68.0,68,29.87,10.0,WNW,5.8,-,N/A,,Clear,290,2013-05-16 22:35:00
6:55 PM,78.8,66.7,66,29.87,10.0,West,3.5,-,N/A,,Clear,270,2013-05-16 22:55:00
7:15 PM,77.7,65.5,66,29.88,10.0,West,5.8,-,N/A,,Clear,270,2013-05-16 23:15:00
7:35 PM,76.1,66.0,71,29.89,10.0,WNW,6.9,-,N/A,,Clear,300,2013-05-16 23:35:00
7:55 PM,73.9,66.2,77,29.89,10.0,NW,8.1,-,N/A,,Clear,310,2013-05-16 23:55:00
8:15 PM,73.6,65.7,76,29.90,10.0,NW,6.9,-,N/A,,Scattered Clouds,320,2013-05-17 00:15:00
8:35 PM,72.0,65.3,79,29.90,10.0,SSW,3.5,-,N/A,,Clear,210,2013-05-17 00:35:00
8:55 PM,69.1,65.1,87,29.90,10.0,Calm,Calm,-,N/A,,Clear,0,2013-05-17 00:55:00
9:15 PM,70.0,67.1,91,29.91,10.0,SSE,4.6,-,N/A,,Clear,150,2013-05-17 01:15:00
9:35 PM,70.9,66.2,85,29.92,10.0,Calm,Calm,-,N/A,,Scattered Clouds,0,2013-05-17 01:35:00
9:55 PM,71.8,64.8,78,29.92,10.0,Calm,Calm,-,N/A,,Scattered Clouds,0,2013-05-17 01:55:00
10:15 PM,69.6,64.6,84,29.93,10.0,Calm,Calm,-,N/A,,Clear,0,2013-05-17 02:15:00
10:35 PM,68.5,64.0,85,29.94,10.0,Calm,Calm,-,N/A,,Clear,0,2013-05-17 02:35:00
10:55 PM,68.0,64.0,87,29.94,10.0,Calm,Calm,-,N/A,,Clear,0,2013-05-17 02:55:00
11:15 PM,69.6,63.5,81,29.94,10.0,Calm,Calm,-,N/A,,Clear,0,2013-05-17 03:15:00
11:35 PM,67.5,63.5,87,29.94,10.0,Calm,Calm,-,N/A,,Clear,0,2013-05-17 03:35:00
11:55 PM,68.4,63.5,84,29.95,10.0,Calm,Calm,-,N/A,,Clear,0,2013-05-17 03:55:00